Regional Weather Roundup
Issued by NWS

Home | Current Version | Previous Version | Text Only | Print | Product List | Glossary On
Versions: 1 2 3 4 5 6 7 8 9 10 11 12 13 14 15 16 17 18 19 20 21 22 23 24 25 26 27 28 29 30 31 32 33 34 35 36 37 38 39 40 41 42 43 44 45 46 47 48 49 50
000
ASUS43 KMPX 201910
RWRMN
WEATHER ROUNDUP FOR MINNESOTA
NATIONAL WEATHER SERVICE TWIN CITIES/CHANHASSEN MN
200 PM CDT SUN AUG 20 2017


NOTE: "FAIR" INDICATES FEW OR NO CLOUDS BELOW 12,000 FEET WITH NO
SIGNIFICANT WEATHER AND/OR OBSTRUCTIONS TO VISIBILITY. N/A MEANS
CURRENT SKY AND/OR WEATHER CONDITIONS ARE NOT AVAILABLE.

MNZ060>063-068>070-202000-
   Twin Cities Metro

CITY           SKY/WX    TMP DP  RH WIND       PRES   REMARKS
TWIN CITIES    PTSUNNY   84  69  60 NW6       29.93S
ST PAUL        PTSUNNY   83  70  64 VRB7      29.92F
CRYSTAL        MOSUNNY   81  65  58 W9        29.92S
BLAINE         PTSUNNY   84  66  54 W9        29.93F
LAKEVILLE      MOSUNNY   81  70  69 W3        29.94S
EDEN PRAIRIE   SUNNY     84  69  60 W8        29.93R
SOUTH ST PAUL  MOSUNNY   82  67  60 W6        29.92S
LAKE ELMO      FAIR      82  72  69 W5        29.93F
$$
MNZ001>005-007-008-013>017-022>024-027-028-202000-
   Northwest Minnesota

CITY           SKY/WX    TMP DP  RH WIND       PRES   REMARKS
BEMIDJI        CLOUDY    73  50  43 N14       29.96S
HALLOCK        PTSUNNY   75  43  31 NW13G20   29.95S
ROSEAU         SUNNY     77  46  33 NW14      29.94S
WARROAD        SUNNY     73  54  49 W9G21     29.93S
THIEF RVR FALL SUNNY     75  42  30 NW12      29.97F
CROOKSTON      SUNNY     75  43  31 NW12G21   29.96F
FOSSTON        SUNNY     73  45  35 NW13G20   29.97S
DETROIT LAKES  CLOUDY    70  54  56 N7        29.99S
MOORHEAD       SUNNY     73  52  46 NW6       30.00R
PARK RAPIDS    PTSUNNY   73  56  54 NW9       29.97R
MAHNOMEN       FAIR      73  50  45 N15       29.96F
$$
MNZ006-009>011-018-025>026-202000-
   North Central Minnesota

CITY           SKY/WX    TMP DP  RH WIND       PRES   REMARKS
BAUDETTE       SUNNY     76  50  40 NW15G23   29.92S
FLAG ISLAND    HAZE      73  45  35 NW9       29.91R VSB 3/4
INTL FALLS     CLOUDY    75  52  44 W10G22    29.89S
WASKISH        CLOUDY    75  57  53 W12G17    29.93S
BIG FORK       CLOUDY    73  52  46 W7        29.93R
LONGVILLE      CLOUDY    72  57  60 NW5       29.96S
GRAND RAPIDS   CLOUDY    72  58  61 W6        29.96R
CRANE LAKE     CLOUDY    72  55  56 W6        29.90R
ORR            CLOUDY    73  52  46 W12       29.89R
COOK           MOSUNNY   73  57  56 W10       29.92R
WALKER         FAIR      69  56  63 NW3       29.96S
$$
MNZ012-019>021-037-202000-
   Northeast Minnesota

CITY           SKY/WX    TMP DP  RH WIND       PRES   REMARKS
DULUTH         MOSUNNY   78  62  57 W14G23    29.91F
ELY            MOSUNNY   72  57  60 W10G21    29.89R
HIBBING        CLOUDY    71  59  65 W7        29.92R
EVELETH        MOSUNNY   73  58  60 W8        29.93R
DULUTH HARBOR  MOSUNNY   79  66  65 W9        29.89F
TWO HARBORS    MOSUNNY   81  68  65 NW5       29.87S
SILVER BAY     PTSUNNY   79  64  61 W5        29.86S
GRAND MARAIS     N/A     66  64  93 W8        29.83R
G MARAIS ARPRT CLOUDY    68  59  73 W6G16     29.89R
$$
MNZ029>031-032-039>041-046>048-054>057-064-202000-
   West Central Minnesota

CITY           SKY/WX    TMP DP  RH WIND       PRES   REMARKS
FERGUS FALLS   CLOUDY    70  61  73 NW5       29.99S
WHEATON        PTSUNNY   70  55  60 N5        30.03R
MORRIS         CLOUDY    66  61  82 W8        30.01S
ELBOW LAKE     FAIR      67  59  75 CALM      30.00R HAZE
WADENA         CLOUDY    70  57  64 NW3       29.99R
GLENWOOD       CLOUDY    70  61  73 NW3       30.02R
APPLETON       CLOUDY    68  57  68 NW8       30.00R
BENSON         PTSUNNY   70  61  73 N13       30.02R
ORTONVILLE     PTSUNNY   66  55  68 MISG      30.02S
MADISON        PTSUNNY   73  63  68 N8        29.99F
WILLMAR        FAIR      75  64  69 N10       29.98S
$$
MNZ033>034-036-042>043-049>051-058-059-202000-
   Central Minnesota

CITY           SKY/WX    TMP DP  RH WIND       PRES   REMARKS
ST CLOUD       MOSUNNY   77  65  66 NW9       29.94F
SAUK CENTRE    FAIR      71  62  73 NW9       29.98S
PAYNESVILLE    CLOUDY    75  64  67 N8        29.98R
AITKIN         MOSUNNY   73  61  64 CALM      29.95R
PINE RIVER     CLOUDY    68  54  60 N5        29.99S
BRAINERD       MOSUNNY   72  57  59 N6        29.96R
STAPLES        CLOUDY    72  57  60 CALM      29.98R
LONG PRAIRIE   FAIR      70  61  73 SW7       30.01R
LITTLE FALLS   CLOUDY    72  61  68 W6        29.98S
LITCHFIELD     MOSUNNY   81  68  65 N8        29.96R
BUFFALO        MOSUNNY   80  65  61 N5        29.94F
MAPLE LAKE     CLOUDY    80  67  65 CALM      29.93F
HUTCHINSON     PTSUNNY   80  70  70 W6        29.96S
$$
MNZ037-044-045-052-053-202000-
   East Central Minnesota

CITY           SKY/WX    TMP DP  RH WIND       PRES   REMARKS
PRINCETON      MOSUNNY   81  64  57 N6        29.94S
MORA           PTSUNNY   75  61  60 NW8       29.96S
CAMBRIDGE      MOSUNNY   82  64  54 NW3       29.94S
RUSH CITY      MOSUNNY   80  65  61 NW8       29.93S
MOOSE LAKE     MOSUNNY   77  61  57 NW7       29.92S
HINCKLEY       MOCLDY    79  66  65 CALM      29.93S
CLOQUET        MOSUNNY   79  57  47 W10G16    29.92F
MCGREGOR       CLOUDY    77  61  57 NW10G18   29.95R
$$
MNZ071>073-080-081-089-090-097-098-202000-
   Southwest Minnesota

CITY           SKY/WX    TMP DP  RH WIND       PRES   REMARKS
MONTEVIDEO     PTSUNNY   79  68  69 N8        29.99R
GRANITE FALLS  MOSUNNY   75  65  70 NW9       30.01R
CANBY          CLOUDY    74  60  61 CALM      30.00F
MARSHALL       SUNNY     72  64  76 N8        30.00R
REDWOOD FALLS  SUNNY     79  65  62 VRB5      29.96S
OLIVIA         MOSUNNY   77  66  69 N3        29.96S
PIPESTONE      MOSUNNY   79  64  61 NE8       30.00S
WINDOM         SUNNY     81  66  61 N3        29.97F
WORTHINGTON    PTSUNNY   79  69  71 VRB5      29.99F
JACKSON        MOSUNNY   81  66  61 CALM      29.98F
TRACY          MOSUNNY   75  67  77 NW9       29.99S
SLAYTON        MOSUNNY   76  61  58 NE8       30.00F
$$
MNZ065>067-074>077-082>085-091>093-202000-
   South Central Minnesota

CITY           SKY/WX    TMP DP  RH WIND       PRES   REMARKS
MANKATO        SUNNY     81  70  69 W7        29.95S
NEW ULM        SUNNY     79  66  65 NW5       29.95S
ST JAMES       SUNNY     81  68  65 NW3       29.96F
FAIRMONT       MOSUNNY   80  68  66 W3        29.98R
GLENCOE        SUNNY     81  71  73 CALM      29.93F
FARIBAULT      PTSUNNY   81  70  69 SW7       29.96S
OWATONNA       SUNNY     81  70  69 SW7       29.97R
WASECA         MOSUNNY   79  68  69 SW7       29.97S
ALBERT LEA     SUNNY     84  66  54 SW9       29.97S
$$
MNZ078>079-086>088-094>096-202000-
   Southeast Minnesota

CITY           SKY/WX    TMP DP  RH WIND       PRES   REMARKS
ROCHESTER      SUNNY     79  68  69 SW16      29.97F
RED WING       SUNNY     84  63  48 SW13      29.92S
STANTON        PTSUNNY   82  68  62 SW7       29.93S
DODGE CENTER   SUNNY     81  64  57 SW12      29.98R
WINONA         SUNNY     82  63  51 SW8       29.95S
AUSTIN         SUNNY     81  66  61 SW7       29.97S
PRESTON        SUNNY     80  62  55 SW9       29.98F
$$
ABBREVIATIONS USED IN REMARKS
   TC - TEMPERATURES IN CELSIUS
  WCI - WIND CHILL INDEX
   HX - HEAT INDEX
  VSB - VISIBILITY
$$



USA.gov is the U.S. government's official web portal to all federal, state and local government web resources and services.